Location: Forst
(46.9333°N, 15.4333°E)
Time: 20:49:57
(UTC+00:00)

FENGYUN 1C DEB - Visible Passes

Search period start: 24 June 2021 00:00
Search period end: 04 July 2021 00:00
Orbit: 500 x 794 km, 99.0° (Epoch: 22 June)

Date Brightness Start Highest point End Pass type
(mag) Time Alt. Az. Time Alt. Az. Time Alt. Az.
24 Jun ? 02:16:15 10° E 02:18:18 12° NE 02:20:19 10° NNE visible
28 Jun ? 02:21:46 10° E 02:23:54 13° NE 02:25:59 10° NNE visible
02 Jul ? 02:27:18 10° E 02:29:28 13° ENE 02:31:34 10° NNE visible
